10/05/2021 10:00,1,79,79,36.87,51.00
10/05/2021 10:30,1,99,99,35.98,47.00
10/05/2021 11:00,1,71,71,36.70,51.00
10/05/2021 11:30,1,91,91,36.74,53.00
10/05/2021 12:00,1,97,97,35.35,49.00
10/05/2021 12:30,1,94,94,35.09,49.00
10/05/2021 13:00,1,147,147,35.91,53.00
10/05/2021 13:30,1,105,105,37.09,54.00
10/05/2021 14:00,1,107,107,35.63,50.00
10/05/2021 14:30,1,98,98,36.83,60.00
10/05/2021 15:00,1,91,91,37.59,51.00
10/05/2021 15:30,1,131,131,37.37,53.00
10/05/2021 16:00,1,118,118,37.08,52.00
10/05/2021 16:30,1,134,134,35.78,56.00
10/05/2021 17:00,1,123,123,35.63,49.00
10/05/2021 17:30,1,110,110,35.37,56.00
10/05/2021 18:00,1,108,108,38.25,56.00
10/05/2021 18:30,1,83,83,38.01,65.00
10/05/2021 19:00,1,48,48,39.71,49.00
10/05/2021 19:30,1,44,44,38.68,52.00
10/05/2021 20:00,1,53,53,38.04,53.00
10/05/2021 20:30,1,20,20,41.35,75.00
10/05/2021 21:00,1,21,21,33.43,42.00
10/05/2021 21:30,1,37,37,39.11,59.00
10/05/2021 22:00,1,18,18,35.89,53.00
10/05/2021 22:30,1,11,11,44.73,58.00
10/05/2021 23:00,1,5,5,40.20,48.00
10/05/2021 23:30,1,1,1,43.00,43.00
11/05/2021 00:00,1,2,2,37.50,42.00
11/05/2021 00:30,1,1,1,31.00,31.00
11/05/2021 01:00,1,3,3,41.00,48.00
11/05/2021 01:30,1,1,1,39.00,39.00
11/05/2021 03:00,1,1,1,43.00,43.00
11/05/2021 03:30,1,2,2,35.50,36.00
11/05/2021 04:00,1,3,3,40.00,46.00
11/05/2021 04:30,1,4,4,41.75,48.00
11/05/2021 05:00,1,13,13,39.77,52.00
11/05/2021 05:30,1,25,25,39.04,58.00
11/05/2021 06:00,1,36,36,39.64,55.00
11/05/2021 06:30,1,71,71,40.04,57.00
11/05/2021 07:00,1,89,89,40.43,63.00
11/05/2021 07:30,1,112,112,37.85,58.00
11/05/2021 08:00,1,86,86,37.90,55.00
11/05/2021 08:30,1,92,92,37.66,53.00
11/05/2021 09:00,1,84,84,38.61,62.00
11/05/2021 09:30,1,74,74,38.97,51.00
11/05/2021 10:00,1,78,78,36.81,47.00
11/05/2021 10:30,1,81,81,35.28,52.00
11/05/2021 11:00,1,89,89,37.89,49.00
11/05/2021 11:30,1,87,87,36.78,48.00
11/05/2021 12:00,1,99,99,36.65,50.00
11/05/2021 12:30,1,105,105,37.28,47.00
11/05/2021 13:00,1,141,141,36.35,51.00
11/05/2021 13:30,1,92,92,36.52,54.00
11/05/2021 14:00,1,113,113,35.76,52.00
11/05/2021 14:30,1,101,101,36.69,51.00
11/05/2021 15:00,1,107,107,37.14,57.00
11/05/2021 15:30,1,107,107,36.64,50.00
11/05/2021 16:00,1,153,153,36.98,56.00
11/05/2021 16:30,1,143,143,36.84,51.00
11/05/2021 17:00,1,131,131,36.82,64.00
11/05/2021 17:30,1,99,99,38.58,58.00
11/05/2021 18:00,1,105,105,38.20,51.00
11/05/2021 18:30,1,99,99,38.71,55.00
11/05/2021 19:00,1,64,64,38.73,70.00
11/05/2021 19:30,1,51,51,37.98,58.00
11/05/2021 20:00,1,36,36,37.47,54.00
11/05/2021 20:30,1,35,35,40.54,55.00
11/05/2021 21:00,1,31,31,36.94,51.00
11/05/2021 21:30,1,25,25,36.00,50.00
11/05/2021 22:00,1,15,15,37.67,77.00
11/05/2021 22:30,1,6,6,33.67,54.00
11/05/2021 23:00,1,4,4,30.25,39.00
11/05/2021 23:30,1,1,1,49.00,49.00
12/05/2021 00:30,1,1,1,48.00,48.00
12/05/2021 01:00,1,1,1,48.00,48.00
12/05/2021 01:30,1,2,2,38.00,44.00
12/05/2021 02:00,1,1,1,38.00,38.00
12/05/2021 02:30,1,1,1,28.00,28.00
12/05/2021 03:00,1,2,2,30.50,38.00
12/05/2021 03:30,1,2,2,36.50,42.00
12/05/2021 04:00,1,3,3,44.33,56.00
12/05/2021 04:30,1,6,6,42.00,54.00
12/05/2021 05:00,1,12,12,44.67,53.00
12/05/2021 05:30,1,18,18,41.00,50.00
12/05/2021 06:00,1,33,33,39.91,65.00
12/05/2021 06:30,1,59,59,39.19,53.00
12/05/2021 07:00,1,89,89,39.66,55.00
12/05/2021 07:30,1,125,125,36.65,57.00
12/05/2021 08:00,1,82,82,37.18,66.00
12/05/2021 08:30,1,105,105,37.32,53.00
12/05/2021 09:00,1,84,84,36.74,48.00
12/05/2021 09:30,1,81,81,38.72,54.00
12/05/2021 10:00,1,92,92,37.65,51.00
12/05/2021 10:30,1,88,88,37.14,49.00
12/05/2021 11:00,1,100,100,36.42,50.00
12/05/2021 11:30,1,85,85,36.62,51.00
12/05/2021 12:00,1,113,113,36.89,51.00
12/05/2021 12:30,1,119,119,37.03,53.00
12/05/2021 13:00,1,134,134,37.48,54.00
12/05/2021 13:30,1,112,112,37.03,52.00
12/05/2021 14:00,1,123,123,37.54,49.00
12/05/2021 14:30,1,109,109,37.29,50.00
12/05/2021 15:00,1,91,91,38.34,53.00
12/05/2021 15:30,1,128,128,37.70,56.00
12/05/2021 16:00,1,131,131,38.42,51.00
12/05/2021 16:30,1,127,127,38.68,50.00
12/05/2021 17:00,1,139,139,37.58,61.00
12/05/2021 17:30,1,130,130,37.37,53.00
12/05/2021 18:00,1,110,110,38.10,61.00
12/05/2021 18:30,1,104,104,37.44,62.00
12/05/2021 19:00,1,79,79,39.16,58.00
12/05/2021 19:30,1,74,74,37.47,53.00
12/05/2021 20:00,1,40,40,40.23,69.00
12/05/2021 20:30,1,43,43,38.56,85.00
12/05/2021 21:00,1,39,39,37.95,61.00
12/05/2021 21:30,1,33,33,39.12,80.00
12/05/2021 22:00,1,28,28,39.68,68.00
12/05/2021 22:30,1,11,11,42.00,62.00
12/05/2021 23:00,1,7,7,37.71,64.00
12/05/2021 23:30,1,4,4,41.00,47.00
13/05/2021 00:00,1,3,3,44.67,46.00
13/05/2021 00:30,1,5,5,41.20,48.00
13/05/2021 01:00,1,5,5,39.00,44.00
13/05/2021 01:30,1,5,5,31.40,40.00
13/05/2021 02:00,1,2,2,33.00,37.00
13/05/2021 02:30,1,1,1,46.00,46.00
13/05/2021 04:00,1,2,2,40.50,41.00
13/05/2021 05:00,1,7,7,41.57,50.00
13/05/2021 05:30,1,3,3,44.67,51.00
13/05/2021 06:00,1,14,14,40.21,56.00
13/05/2021 06:30,1,9,9,38.33,43.00
13/05/2021 07:00,1,11,11,36.73,50.00
13/05/2021 07:30,1,19,19,39.16,51.00
13/05/2021 08:00,1,20,20,39.95,49.00
13/05/2021 08:30,1,31,31,38.65,51.00
13/05/2021 09:00,1,41,41,40.90,59.00
13/05/2021 09:30,1,44,44,39.30,53.00
13/05/2021 10:00,1,78,78,38.33,51.00
13/05/2021 10:30,1,54,54,38.59,52.00
13/05/2021 11:00,1,84,84,38.87,53.00
13/05/2021 11:30,1,63,63,39.62,54.00
13/05/2021 12:00,1,105,105,38.74,85.00
13/05/2021 12:30,1,86,86,37.73,53.00
13/05/2021 13:00,1,101,101,38.49,62.00
13/05/2021 13:30,1,93,93,36.34,57.00
13/05/2021 14:00,1,79,79,39.85,53.00
13/05/2021 14:30,1,76,76,39.41,64.00
13/05/2021 15:00,1,77,77,38.14,50.00
13/05/2021 15:30,1,62,62,37.19,52.00
13/05/2021 16:00,1,63,63,37.92,51.00
13/05/2021 16:30,1,78,78,37.63,53.00
13/05/2021 17:00,1,60,60,36.72,77.00
13/05/2021 17:30,1,78,78,37.67,53.00
13/05/2021 18:00,1,63,63,37.67,56.00
13/05/2021 18:30,1,50,50,38.12,63.00
13/05/2021 19:00,1,57,57,38.49,55.00
13/05/2021 19:30,1,68,68,39.32,62.00
13/05/2021 20:00,1,47,47,37.43,62.00
13/05/2021 20:30,1,47,47,39.64,56.00
13/05/2021 21:00,1,43,43,39.51,55.00
13/05/2021 21:30,1,22,22,35.36,57.00
13/05/2021 22:00,1,15,15,37.00,54.00
13/05/2021 22:30,1,17,17,39.76,65.00
13/05/2021 23:00,1,14,14,37.50,46.00
13/05/2021 23:30,1,4,4,41.25,43.00
14/05/2021 00:00,1,4,4,27.00,38.00
14/05/2021 00:30,1,2,2,44.00,47.00
14/05/2021 01:00,1,6,6,39.00,47.00
14/05/2021 01:30,1,5,5,39.20,52.00
14/05/2021 02:00,1,3,3,37.67,39.00
14/05/2021 02:30,1,1,1,36.00,36.00
14/05/2021 03:00,1,2,2,45.00,49.00
14/05/2021 03:30,1,1,1,39.00,39.00
14/05/2021 04:00,1,3,3,43.67,45.00
14/05/2021 04:30,1,5,5,46.80,61.00
14/05/2021 05:00,1,14,14,38.36,49.00
14/05/2021 05:30,1,21,21,39.67,51.00
14/05/2021 06:00,1,24,24,42.38,54.00
14/05/2021 06:30,1,45,45,39.93,61.00
14/05/2021 07:00,1,54,54,40.09,52.00
14/05/2021 07:30,1,71,71,36.87,51.00
14/05/2021 08:00,1,72,72,39.07,58.00
14/05/2021 08:30,1,87,87,38.07,52.00
14/05/2021 09:00,1,95,95,38.37,53.00
14/05/2021 09:30,1,93,93,38.15,56.00
14/05/2021 10:00,1,105,105,38.20,54.00
14/05/2021 10:30,1,86,86,38.65,51.00
14/05/2021 11:00,1,102,102,36.63,62.00
14/05/2021 11:30,1,114,114,36.46,50.00
14/05/2021 12:00,1,105,105,36.72,51.00
14/05/2021 12:30,1,112,112,37.35,52.00
14/05/2021 13:00,1,106,106,36.86,55.00
14/05/2021 13:30,1,112,112,37.52,54.00
14/05/2021 14:00,1,120,120,37.34,54.00
14/05/2021 14:30,1,120,120,36.11,53.00
14/05/2021 15:00,1,94,94,37.21,55.00
14/05/2021 15:30,1,115,115,37.60,64.00
14/05/2021 16:00,1,117,117,36.62,47.00
14/05/2021 16:30,1,116,116,37.75,68.00
14/05/2021 17:00,1,107,107,36.34,52.00
14/05/2021 17:30,1,108,108,38.37,54.00
14/05/2021 18:00,1,98,98,38.14,54.00
14/05/2021 18:30,1,79,79,37.32,53.00
14/05/2021 19:00,1,84,84,38.29,56.00
14/05/2021 19:30,1,67,67,39.40,70.00
14/05/2021 20:00,1,57,57,36.84,67.00
14/05/2021 20:30,1,35,35,37.77,51.00
14/05/2021 21:00,1,34,34,38.91,73.00
14/05/2021 21:30,1,27,27,35.89,45.00
14/05/2021 22:00,1,22,22,35.45,46.00
14/05/2021 22:30,1,18,18,41.83,68.00
14/05/2021 23:00,1,16,16,36.50,55.00
14/05/2021 23:30,1,10,10,35.80,51.00
15/05/2021 00:00,1,4,4,37.25,40.00
15/05/2021 00:30,1,1,1,46.00,46.00
15/05/2021 01:00,1,5,5,36.40,45.00
15/05/2021 01:30,1,1,1,27.00,27.00
15/05/2021 02:00,1,6,6,35.17,71.00
15/05/2021 04:00,1,1,1,41.00,41.00
15/05/2021 04:30,1,6,6,46.33,55.00
15/05/2021 05:00,1,3,3,39.00,42.00
15/05/2021 05:30,1,8,8,41.88,53.00
15/05/2021 06:00,1,14,14,38.21,48.00
15/05/2021 06:30,1,18,18,41.17,61.00
15/05/2021 07:00,1,26,26,41.00,60.00
15/05/2021 07:30,1,38,38,36.66,49.00
15/05/2021 08:00,1,40,40,38.17,51.00
15/05/2021 08:30,1,50,50,40.68,55.00
15/05/2021 09:00,1,68,68,38.31,51.00
15/05/2021 09:30,1,78,78,37.06,51.00
15/05/2021 10:00,1,77,77,39.12,73.00
15/05/2021 10:30,1,86,86,38.29,62.00
15/05/2021 11:00,1,94,94,36.82,50.00
15/05/2021 11:30,1,104,104,38.89,54.00
15/05/2021 12:00,1,84,84,37.33,55.00
15/05/2021 12:30,1,108,108,38.00,56.00
15/05/2021 13:00,1,80,80,38.01,58.00
15/05/2021 13:30,1,88,88,37.38,57.00
15/05/2021 14:00,1,91,91,38.33,50.00
15/05/2021 14:30,1,80,80,39.09,60.00
15/05/2021 15:00,1,98,98,37.97,59.00
15/05/2021 15:30,1,83,83,37.90,53.00
15/05/2021 16:00,1,89,89,37.13,54.00
15/05/2021 16:30,1,84,84,36.98,53.00
15/05/2021 17:00,1,80,80,36.69,51.00
15/05/2021 17:30,1,82,82,38.98,64.00
15/05/2021 18:00,1,73,73,37.48,68.00
15/05/2021 18:30,1,49,49,40.02,64.00
15/05/2021 19:00,1,67,67,41.76,83.00
15/05/2021 19:30,1,52,52,37.87,55.00
15/05/2021 20:00,1,39,39,38.08,55.00
15/05/2021 20:30,1,41,41,38.51,59.00
15/05/2021 21:00,1,26,26,36.73,46.00
15/05/2021 21:30,1,25,25,37.40,54.00
15/05/2021 22:00,1,21,21,36.33,57.00
15/05/2021 22:30,1,21,21,36.81,54.00
15/05/2021 23:00,1,10,10,38.90,52.00
15/05/2021 23:30,1,5,5,41.40,51.00
16/05/2021 00:00,1,10,10,42.90,68.00
16/05/2021 00:30,1,4,4,43.75,46.00
16/05/2021 01:00,1,5,5,46.80,55.00
16/05/2021 01:30,1,4,4,45.50,53.00
16/05/2021 02:00,1,2,2,40.50,44.00
16/05/2021 02:30,1,1,1,76.00,76.00
16/05/2021 03:00,1,2,2,33.50,42.00
16/05/2021 03:30,1,2,2,35.00,36.00
16/05/2021 04:00,1,1,1,41.00,41.00
16/05/2021 04:30,1,1,1,37.00,37.00
16/05/2021 05:00,1,3,3,41.67,46.00
16/05/2021 05:30,1,6,6,39.83,49.00
16/05/2021 06:00,1,8,8,42.12,50.00
16/05/2021 06:30,1,8,8,42.50,47.00
16/05/2021 07:00,1,8,8,39.38,44.00
16/05/2021 07:30,1,7,7,43.29,56.00
16/05/2021 08:00,1,16,16,41.19,53.00
16/05/2021 08:30,1,23,23,41.70,58.00
16/05/2021 09:00,1,30,30,38.43,56.00
16/05/2021 09:30,1,48,48,39.38,54.00
16/05/2021 10:00,1,68,68,39.15,52.00
16/05/2021 10:30,1,53,53,39.00,51.00
16/05/2021 11:00,1,62,62,39.63,53.00
16/05/2021 11:30,1,66,66,40.11,55.00
16/05/2021 12:00,1,56,56,39.52,59.00
16/05/2021 12:30,1,80,80,40.11,58.00
16/05/2021 13:00,1,74,74,37.86,64.00
16/05/2021 13:30,1,67,67,40.42,55.00
16/05/2021 14:00,1,79,79,39.90,60.00
16/05/2021 14:30,1,82,82,40.21,65.00
16/05/2021 15:00,1,68,68,39.44,51.00
16/05/2021 15:30,1,63,63,38.35,54.00
16/05/2021 16:00,1,69,69,38.01,53.00
16/05/2021 16:30,1,56,56,39.55,54.00
16/05/2021 17:00,1,58,58,39.81,67.00
16/05/2021 17:30,1,57,57,40.56,57.00
16/05/2021 18:00,1,52,52,41.23,54.00
16/05/2021 18:30,1,57,57,39.74,58.00
16/05/2021 19:00,1,38,38,39.79,58.00
16/05/2021 19:30,1,43,43,40.09,56.00
16/05/2021 20:00,1,55,55,38.95,52.00
16/05/2021 20:30,1,26,26,39.62,60.00
16/05/2021 21:00,1,20,20,37.75,57.00
16/05/2021 21:30,1,14,14,36.64,46.00
16/05/2021 22:00,1,16,16,38.69,52.00
16/05/2021 22:30,1,9,9,31.56,46.00
16/05/2021 23:00,1,6,6,34.33,54.00
16/05/2021 23:30,1,3,3,34.67,44.00
17/05/2021 00:00,1,1,1,54.00,54.00
17/05/2021 01:00,1,2,2,44.50,58.00
17/05/2021 01:30,1,2,2,41.00,45.00
17/05/2021 02:00,1,1,1,46.00,46.00
17/05/2021 02:30,1,1,1,37.00,37.00
17/05/2021 03:00,1,1,1,41.00,41.00
17/05/2021 03:30,1,3,3,35.33,43.00
17/05/2021 04:00,1,3,3,47.00,72.00
17/05/2021 04:30,1,5,5,38.80,44.00
17/05/2021 05:00,1,10,10,36.60,48.00
17/05/2021 05:30,1,28,28,42.46,58.00
17/05/2021 06:00,1,37,37,39.24,58.00
17/05/2021 06:30,1,61,61,39.74,52.00
17/05/2021 07:00,1,85,85,39.36,54.00
17/05/2021 07:30,1,104,104,37.15,57.00
17/05/2021 08:00,1,99,99,38.17,58.00
17/05/2021 08:30,1,94,94,37.32,50.00
17/05/2021 09:00,1,78,78,37.67,51.00
17/05/2021 09:30,1,71,71,37.80,64.00
17/05/2021 10:00,1,87,87,37.69,52.00
17/05/2021 10:30,1,73,73,38.44,52.00
17/05/2021 11:00,1,111,111,37.97,55.00
17/05/2021 11:30,1,84,84,36.61,52.00
17/05/2021 12:00,1,107,107,34.85,51.00
17/05/2021 12:30,1,95,95,37.63,54.00
17/05/2021 13:00,1,131,131,37.42,49.00
17/05/2021 13:30,1,85,85,37.69,50.00
17/05/2021 14:00,1,92,92,37.09,53.00
17/05/2021 14:30,1,92,92,37.84,55.00
17/05/2021 15:00,1,97,97,36.43,47.00
17/05/2021 15:30,1,112,112,37.66,50.00
17/05/2021 16:00,1,135,135,35.96,49.00
17/05/2021 16:30,1,141,141,37.25,56.00
17/05/2021 17:00,1,127,127,36.25,56.00
17/05/2021 17:30,1,95,95,36.44,47.00
17/05/2021 18:00,1,123,123,38.24,70.00
17/05/2021 18:30,1,81,81,39.88,60.00
17/05/2021 19:00,1,77,77,38.23,52.00
17/05/2021 19:30,1,40,40,37.25,57.00
17/05/2021 20:00,1,57,57,38.49,54.00
17/05/2021 20:30,1,44,44,37.80,51.00
17/05/2021 21:00,1,33,33,38.52,50.00
17/05/2021 21:30,1,19,19,37.74,53.00
17/05/2021 22:00,1,23,23,40.30,65.00
17/05/2021 22:30,1,17,17,34.00,51.00
17/05/2021 23:00,1,6,6,36.17,49.00
17/05/2021 23:30,1,3,3,42.00,47.00
18/05/2021 00:00,1,5,5,36.80,46.00
18/05/2021 00:30,1,2,2,42.50,48.00
18/05/2021 01:00,1,7,7,36.00,43.00
18/05/2021 01:30,1,1,1,42.00,42.00
18/05/2021 02:00,1,2,2,29.00,37.00
18/05/2021 03:00,1,3,3,43.67,52.00
18/05/2021 03:30,1,2,2,38.00,41.00
18/05/2021 04:00,1,1,1,51.00,51.00
18/05/2021 04:30,1,5,5,42.60,50.00
18/05/2021 05:00,1,4,4,38.75,43.00
18/05/2021 05:30,1,23,23,42.52,58.00
18/05/2021 06:00,1,32,32,39.50,52.00
18/05/2021 06:30,1,65,65,40.65,55.00
18/05/2021 07:00,1,78,78,38.91,54.00
18/05/2021 07:30,1,88,88,38.42,50.00
18/05/2021 08:00,1,86,86,37.33,49.00
18/05/2021 08:30,1,90,90,35.00,50.00
18/05/2021 09:00,1,81,81,34.41,48.00
18/05/2021 09:30,1,74,74,35.11,54.00
18/05/2021 10:00,1,72,72,36.82,46.00
18/05/2021 10:30,1,77,77,36.78,50.00
18/05/2021 11:00,1,78,78,36.22,51.00
18/05/2021 11:30,1,88,88,35.83,54.00
18/05/2021 12:00,1,103,103,37.49,51.00
18/05/2021 12:30,1,102,102,37.08,53.00
18/05/2021 13:00,1,139,139,35.79,66.00
18/05/2021 13:30,1,94,94,38.29,57.00
18/05/2021 14:00,1,115,115,37.43,54.00
18/05/2021 14:30,1,110,110,36.30,51.00
18/05/2021 15:00,1,93,93,34.63,51.00
18/05/2021 15:30,1,144,144,38.46,58.00
18/05/2021 16:00,1,134,134,36.32,47.00
18/05/2021 16:30,1,145,145,37.83,54.00
18/05/2021 17:00,1,137,137,35.52,49.00
18/05/2021 17:30,1,124,124,35.98,50.00
18/05/2021 18:00,1,103,103,37.77,53.00
18/05/2021 18:30,1,109,109,38.87,70.00
18/05/2021 19:00,1,78,78,36.86,62.00
18/05/2021 19:30,1,39,39,37.56,63.00
18/05/2021 20:00,1,58,58,38.33,52.00
18/05/2021 20:30,1,48,48,38.15,52.00
18/05/2021 21:00,1,46,46,39.35,54.00
18/05/2021 21:30,1,26,26,37.85,53.00
18/05/2021 22:00,1,20,20,35.15,45.00
18/05/2021 22:30,1,16,16,36.94,64.00
18/05/2021 23:00,1,9,9,39.22,50.00
18/05/2021 23:30,1,5,5,47.40,64.00
19/05/2021 00:00,1,3,3,42.00,53.00
19/05/2021 00:30,1,3,3,36.67,47.00
19/05/2021 01:00,1,2,2,41.00,42.00
19/05/2021 01:30,1,4,4,39.50,49.00
19/05/2021 02:30,1,1,1,41.00,41.00
19/05/2021 03:00,1,1,1,42.00,42.00
19/05/2021 03:30,1,3,3,41.33,45.00
19/05/2021 04:00,1,1,1,51.00,51.00
19/05/2021 04:30,1,4,4,39.00,43.00
19/05/2021 05:00,1,11,11,41.27,50.00
19/05/2021 05:30,1,24,24,40.79,57.00
19/05/2021 06:00,1,43,43,36.84,55.00
19/05/2021 06:30,1,63,63,38.22,49.00
19/05/2021 07:00,1,91,91,38.52,56.00
19/05/2021 07:30,1,104,104,38.37,52.00
19/05/2021 08:00,1,84,84,38.42,56.00
19/05/2021 08:30,1,88,88,36.14,50.00
19/05/2021 09:00,1,82,82,36.44,50.00
19/05/2021 09:30,1,68,68,35.13,50.00
19/05/2021 10:00,1,79,79,37.46,48.00
19/05/2021 10:30,1,78,78,37.35,53.00
19/05/2021 11:00,1,81,81,36.58,49.00
19/05/2021 11:30,1,90,90,37.57,55.00
19/05/2021 12:00,1,134,134,35.78,58.00
19/05/2021 12:30,1,102,102,37.05,54.00
19/05/2021 13:00,1,139,139,37.50,60.00
19/05/2021 13:30,1,107,107,37.74,52.00
19/05/2021 14:00,1,138,138,35.01,70.00
19/05/2021 14:30,1,115,115,39.34,56.00
19/05/2021 15:00,1,115,115,36.52,60.00
19/05/2021 15:30,1,145,145,36.43,56.00
19/05/2021 16:00,1,141,141,37.37,51.00
19/05/2021 16:30,1,126,126,37.29,54.00
19/05/2021 17:00,1,137,137,37.18,50.00
19/05/2021 17:30,1,122,122,38.39,53.00
19/05/2021 18:00,1,118,118,35.90,51.00
19/05/2021 18:30,1,99,99,37.70,70.00
19/05/2021 19:00,1,70,70,38.30,51.00
19/05/2021 19:30,1,66,66,39.38,54.00
19/05/2021 20:00,1,45,45,37.62,60.00
19/05/2021 20:30,1,41,41,39.10,48.00
19/05/2021 21:00,1,29,29,34.14,56.00
19/05/2021 21:30,1,22,22,37.82,47.00
19/05/2021 22:00,1,16,16,32.25,53.00
19/05/2021 22:30,1,16,16,38.31,63.00
19/05/2021 23:00,1,7,7,42.29,55.00
19/05/2021 23:30,1,4,4,34.25,37.00
20/05/2021 00:00,1,2,2,21.00,24.00
20/05/2021 00:30,1,7,7,39.57,48.00
20/05/2021 01:00,1,1,1,43.00,43.00
20/05/2021 01:30,1,2,2,40.50,47.00
20/05/2021 02:00,1,1,1,47.00,47.00
20/05/2021 03:00,1,1,1,36.00,36.00
20/05/2021 03:30,1,2,2,38.00,40.00
20/05/2021 04:00,1,1,1,39.00,39.00
20/05/2021 04:30,1,6,6,42.50,48.00
20/05/2021 05:00,1,10,10,37.70,47.00
20/05/2021 05:30,1,27,27,38.63,59.00
20/05/2021 06:00,1,32,32,40.41,55.00
20/05/2021 06:30,1,65,65,39.66,60.00
20/05/2021 07:00,1,96,96,38.55,55.00
20/05/2021 07:30,1,117,117,37.90,60.00
20/05/2021 08:00,1,89,89,38.17,50.00
20/05/2021 08:30,1,86,86,38.91,51.00
20/05/2021 09:00,1,91,91,35.14,47.00
20/05/2021 09:30,1,66,66,37.50,47.00
20/05/2021 10:00,1,74,74,36.66,51.00
20/05/2021 10:30,1,97,97,37.49,52.00
20/05/2021 11:00,1,91,91,36.79,64.00
20/05/2021 11:30,1,91,91,36.88,53.00
20/05/2021 12:00,1,104,104,38.41,65.00
20/05/2021 12:30,1,96,96,36.98,49.00
20/05/2021 13:00,1,141,141,35.99,51.00
20/05/2021 13:30,1,130,130,38.09,51.00
20/05/2021 14:00,1,100,100,36.24,63.00
20/05/2021 14:30,1,91,91,35.99,50.00
20/05/2021 15:00,1,111,111,36.99,56.00
20/05/2021 15:30,1,148,148,36.20,51.00
20/05/2021 16:00,1,184,184,35.69,55.00
20/05/2021 16:30,1,149,149,36.14,53.00
20/05/2021 17:00,1,153,153,36.07,53.00
20/05/2021 17:30,1,137,137,36.72,55.00
20/05/2021 18:00,1,123,123,36.20,52.00
20/05/2021 18:30,1,93,93,36.96,50.00
20/05/2021 19:00,1,70,70,36.47,53.00
20/05/2021 19:30,1,76,76,39.25,100.00
20/05/2021 20:00,1,74,74,38.47,53.00
20/05/2021 20:30,1,41,41,39.59,64.00
20/05/2021 21:00,1,33,33,37.70,54.00
20/05/2021 21:30,1,31,31,38.39,59.00
20/05/2021 22:00,1,22,22,34.41,48.00
20/05/2021 22:30,1,16,16,34.81,46.00
20/05/2021 23:00,1,20,20,40.65,78.00
20/05/2021 23:30,1,5,5,36.40,44.00
21/05/2021 00:00,1,6,6,39.17,46.00
21/05/2021 00:30,1,1,1,49.00,49.00
21/05/2021 01:00,1,4,4,38.50,47.00
21/05/2021 01:30,1,5,5,39.80,48.00
21/05/2021 02:00,1,3,3,36.00,56.00
21/05/2021 02:30,1,1,1,37.00,37.00
21/05/2021 03:00,1,4,4,41.50,45.00
21/05/2021 03:30,1,1,1,34.00,34.00
21/05/2021 04:00,1,2,2,44.50,47.00
21/05/2021 04:30,1,6,6,39.50,49.00
21/05/2021 05:00,1,10,10,43.10,60.00
21/05/2021 05:30,1,23,23,41.09,51.00
21/05/2021 06:00,1,28,28,39.82,59.00
21/05/2021 06:30,1,65,65,39.06,54.00
21/05/2021 07:00,1,90,90,39.34,51.00
21/05/2021 07:30,1,104,104,37.31,57.00
21/05/2021 08:00,1,110,110,35.48,54.00
21/05/2021 08:30,1,112,112,35.67,51.00
21/05/2021 09:00,1,106,106,37.00,54.00
21/05/2021 09:30,1,82,82,37.60,55.00
21/05/2021 10:00,1,97,97,36.87,57.00
21/05/2021 10:30,1,83,83,38.04,50.00
21/05/2021 11:00,1,79,79,37.24,57.00
21/05/2021 11:30,1,108,108,38.43,50.00
21/05/2021 12:00,1,117,117,37.50,51.00
21/05/2021 12:30,1,134,134,38.57,62.00
21/05/2021 13:00,1,163,163,37.67,52.00
21/05/2021 13:30,1,144,144,38.67,51.00
21/05/2021 14:00,1,132,132,38.95,54.00
21/05/2021 14:30,1,110,110,37.73,55.00
21/05/2021 15:00,1,120,120,37.25,56.00
21/05/2021 15:30,1,156,156,37.52,51.00
21/05/2021 16:00,1,116,116,36.41,52.00
21/05/2021 16:30,1,105,105,37.31,51.00
21/05/2021 17:00,1,108,108,38.43,62.00
21/05/2021 17:30,1,100,100,37.29,52.00
21/05/2021 18:00,1,97,97,37.79,52.00
21/05/2021 18:30,1,69,69,38.99,57.00
21/05/2021 19:00,1,78,78,38.58,54.00
21/05/2021 19:30,1,65,65,39.37,57.00
21/05/2021 20:00,1,38,38,39.11,57.00
21/05/2021 20:30,1,41,41,38.66,56.00
21/05/2021 21:00,1,40,40,38.15,56.00
21/05/2021 21:30,1,29,29,37.31,58.00
21/05/2021 22:00,1,18,18,40.89,57.00
21/05/2021 22:30,1,13,13,39.46,64.00
21/05/2021 23:00,1,15,15,36.60,64.00
21/05/2021 23:30,1,6,6,35.83,42.00
22/05/2021 00:00,1,10,10,38.70,51.00
22/05/2021 00:30,1,4,4,52.25,64.00
22/05/2021 01:00,1,3,3,42.33,53.00
22/05/2021 01:30,1,8,8,38.88,46.00
22/05/2021 02:00,1,6,6,42.00,62.00
22/05/2021 02:30,1,1,1,35.00,35.00
22/05/2021 03:00,1,1,1,44.00,44.00
22/05/2021 03:30,1,3,3,30.00,37.00
22/05/2021 04:00,1,5,5,43.00,59.00
22/05/2021 04:30,1,1,1,33.00,33.00
22/05/2021 05:00,1,5,5,47.60,60.00
22/05/2021 05:30,1,6,6,40.83,55.00
22/05/2021 06:00,1,17,17,39.65,47.00
22/05/2021 06:30,1,20,20,36.25,47.00
22/05/2021 07:00,1,27,27,43.07,61.00
22/05/2021 07:30,1,34,34,34.47,46.00
22/05/2021 08:00,1,61,61,36.93,54.00
22/05/2021 08:30,1,70,70,37.46,66.00
22/05/2021 09:00,1,62,62,39.03,55.00
22/05/2021 09:30,1,108,108,37.84,50.00
22/05/2021 10:00,1,100,100,37.18,58.00
22/05/2021 10:30,1,99,99,37.80,47.00
22/05/2021 11:00,1,95,95,37.69,50.00
22/05/2021 11:30,1,87,87,39.02,56.00
22/05/2021 12:00,1,95,95,37.31,56.00
22/05/2021 12:30,1,84,84,38.63,55.00
22/05/2021 13:00,1,87,87,39.23,61.00
22/05/2021 13:30,1,84,84,38.46,52.00
22/05/2021 14:00,1,101,101,36.28,50.00
22/05/2021 14:30,1,115,115,36.87,64.00
22/05/2021 15:00,1,104,104,37.65,52.00
22/05/2021 15:30,1,74,74,36.47,52.00
22/05/2021 16:00,1,67,67,37.84,56.00
22/05/2021 16:30,1,78,78,38.14,51.00
22/05/2021 17:00,1,62,62,36.48,56.00
22/05/2021 17:30,1,85,85,38.58,59.00
22/05/2021 18:00,1,83,83,36.35,53.00
22/05/2021 18:30,1,88,88,37.59,51.00
22/05/2021 19:00,1,57,57,39.00,51.00
22/05/2021 19:30,1,50,50,38.20,61.00
22/05/2021 20:00,1,53,53,38.64,97.00
22/05/2021 20:30,1,34,34,41.79,75.00
22/05/2021 21:00,1,34,34,35.82,47.00
22/05/2021 21:30,1,34,34,39.76,70.00
22/05/2021 22:00,1,24,24,39.71,61.00
22/05/2021 22:30,1,33,33,39.58,88.00
22/05/2021 23:00,1,13,13,35.62,49.00
22/05/2021 23:30,1,2,2,45.50,48.00
23/05/2021 00:00,1,10,10,38.80,51.00
23/05/2021 00:30,1,8,8,35.62,46.00
23/05/2021 01:00,1,10,10,39.00,63.00
23/05/2021 01:30,1,7,7,49.43,68.00
23/05/2021 02:00,1,5,5,40.00,59.00
23/05/2021 02:30,1,1,1,26.00,26.00
23/05/2021 03:00,1,2,2,43.00,44.00
23/05/2021 03:30,1,1,1,45.00,45.00
23/05/2021 04:00,1,1,1,39.00,39.00
23/05/2021 04:30,1,2,2,43.50,45.00
23/05/2021 05:00,1,4,4,38.00,44.00
23/05/2021 05:30,1,4,4,35.00,45.00
23/05/2021 06:00,1,9,9,42.89,54.00
23/05/2021 06:30,1,9,9,35.67,46.00
23/05/2021 07:00,1,9,9,40.33,45.00
23/05/2021 07:30,1,10,10,39.20,48.00
23/05/2021 08:00,1,22,22,38.86,51.00
23/05/2021 08:30,1,19,19,40.00,55.00
23/05/2021 09:00,1,22,22,41.77,51.00
23/05/2021 09:30,1,49,49,39.27,53.00
23/05/2021 10:00,1,47,47,40.11,62.00
23/05/2021 10:30,1,60,60,40.50,61.00
23/05/2021 11:00,1,61,61,38.67,53.00
23/05/2021 11:30,1,80,80,36.66,51.00
23/05/2021 12:00,1,93,93,37.85,52.00
23/05/2021 12:30,1,81,81,39.60,62.00
23/05/2021 13:00,1,68,68,37.56,54.00
23/05/2021 13:30,1,54,54,38.67,56.00
23/05/2021 14:00,1,71,71,38.90,55.00
23/05/2021 14:30,1,71,71,38.63,52.00
23/05/2021 15:00,1,75,75,36.65,55.00
23/05/2021 15:30,1,56,56,37.48,51.00
23/05/2021 16:00,1,57,57,39.58,68.00
23/05/2021 16:30,1,66,66,38.65,64.00
23/05/2021 17:00,1,87,87,37.64,59.00
23/05/2021 17:30,1,72,72,38.68,59.00
23/05/2021 18:00,1,81,81,37.63,53.00
23/05/2021 18:30,1,72,72,37.26,51.00
23/05/2021 19:00,1,55,55,40.42,64.00
23/05/2021 19:30,1,71,71,36.82,62.00
23/05/2021 20:00,1,56,56,35.93,55.00
23/05/2021 20:30,1,40,40,38.00,55.00